Location: Peebles
(55.6412°N, 3.1714°W)
Time: 22:07:17
(UTC+01:00)

deb AGENA D - Pass Details

Date: 08 July 2022
Orbit: 951 x 1019 km, 99.8° (Epoch: 17 August)

Event Time Altitude Azimuth Distance (km) Brightness Sun altitude
Rises 00:01:27 0° 112° (ESE) 3,759 ? -10.2°
Reaches altitude 10° 00:04:21 10° 100° (E) 2,809 ? -10.3°
Maximum altitude 00:09:22 26° 47° (NE) 1,903 ? -10.5°
Drops below altitude 10° 00:14:21 10° 355° (N) 2,802 ? -10.7°
Sets 00:17:14 0° 343° (NNW) 3,747 ? -10.8°
